STARLINK-33825, 63505

Orbit data source: Space-Track

STARLINK-33825, 63505 is a payload satellite owned by SpaceX/Seattle (US) in LEO that was launched on Mon, 07 Apr 2025 UTC via an FALCON 9 launch vehicle from the Air Force Western Test Range (AFWTR). Payload-class satellites include a variety of spacecraft equipped with specific instruments for various scientific and technological missions. These include communications satellites like Starlink; space stations such as the ISS; scientific satellites like the Hubble; Earth observation satellites from companies like Planet Labs, Umbra, and HawkEye 360; GPS; miniature CubeSats for education and research; and military/defense satellites.

Loading next visibility...
Identifier
63505, 2025-071N
Orbit
LEO
Last TLE update
12 hours ago
Origin
Manufacturer
SpaceX/Seattle
Mission
Operational Commercial Communications
Bus & Motor
STARLINK V2MO, Unknown motor
Mass
575 kg wet, ~530 kg dry
Launch date (UTC)
2025-04-07 (3 months ago)
Launch vehicle
FALCON 9
Launch site
Air Force Western Test Range (AFWTR)
Object type
Payload
Rocket body
Debris
Shape & HBR
Box + 1 Pan, 29 m
Radar Cross Section
41.120 m², Large (>1 m²)

Expand to show TLE details & history

TLE from 12 hours ago
0 STARLINK-33825
1 63505U 25071N   25186.45133513  .00016955  00000-0  43288-3 0  9995
2 63505  53.1575 208.5321 0001066  71.0471 289.0649 15.39622309 14914
Epoch: 2025-07-05T10:49Z
TLE epoch observation values (Epoch: 2025-07-05T10:49:55.355Z)
Latitude
-0.00003°
Longitude
122.36224°
Altitude
447.891 km
Speed
7.645 km/s
True Right ascension
13h 54m 07s
True Declination
0° 00' 00"
Sunlit
Object was in daylight at epoch
Visualization orbit readout
Latitude
2.84677°
Longitude
122.03475°
Altitude
447.49 km
Speed
7.645 km/s
Apparent Right ascension
16h 55m 43s
Apparent Declination
-40° 39' 23"
Sunlit
Object is in daylight
Visualization observer readout
Local Sidereal Time
11:14:59
Azimuth
125.567° SE
Elevation
-21.669°
Doppler factor
1
Orbital elements
Apogee altitude
448.211 km
Perigee altitude
446.756 km
Semi-major axis
6,825.62 km
Eccentricity
0.00011
Inclination
53.1575°
RAAN
208.5321°
Arg. of periapsis
71.0471°
True anomaly
Unknown
Mean anomaly
289.0649°
Eccentric anomaly
Unknown
Mean motion
3.84884 °/min
Orbital period
93.53 mins
BSTAR
0.00043288
Loading maneuver chart data...
Loading SW <> Apogee altitude chart data...
Loading historical data...
Loading historical data...
Loading historical data...
Loading historical data...
Loading historical data...
Loading historical data...
Loading historical data...

STARLINK-33825 Visibility forecast

Observer location: undefined°, undefined°

Span
Click to sort rows by Start time (UTC) header in descending order
Start Az.
Max El. time (UTC)
Max El. Az.
Max El.
End time (UTC)
End Az.
6 mins2025-07-06 04:08:38.990Z224.047° SW2025-07-06 04:11:38.990Z154.336° SSE44.335°2025-07-06 04:14:38.990Z52.973° ENE
5 mins2025-07-06 10:42:38.990Z326.728° NNW2025-07-06 10:44:38.990Z73.382° E39.306°2025-07-06 10:47:38.990Z118.713° SE
|